Probability
0 0 0 0 0 0 0 0 0 0 0 0 0 0 0 0 0 0 0 0 0 0 0 3 6 6 0 0 0 0 10 13 10 13 13 13 10 13 13 10 10 3 6 10
0 0 0 0 0 0 0 0 0 0 0 0 0 0 0 0 3 3 3 3 0 0 3 6 10 6 3 0 0 3 10 10 10 13 10 10 13 13 13 13 10 13 13 13
0 0 0 0 0 0 0 0 0 0 0 0 0 0 0 0 0 0 3 3 3 0 3 10 13 3 3 3 3 10 10 16 10 10 16 19 16 13 10 10 13 13 19 19
0 0 0 0 0 0 0 0 0 0 0 0 0 0 0 0 0 0 0 0 3 3 6 10 10 3 0 3 6 10 13 19 23 16 19 23 19 19 13 13 10 10 13 23
0 0 0 0 0 0 0 0 0 0 0 0 0 0 0 0 0 0 3 3 3 6 13 13 13 3 0 16 13 10 16 23 23 26 26 19 19 16 13 10 10 13 6 16
0 0 0 0 0 0 0 0 0 0 0 0 0 0 0 0 0 0 3 3 3 6 16 13 10 6 6 13 13 19 16 19 19 26 26 23 23 23 16 10 10 10 10 13
0 0 0 0 0 0 0 0 0 0 0 0 0 0 0 0 0 0 3 3 6 10 10 10 6 6 3 23 23 19 19 23 19 26 23 29 26 26 16 10 10 10 10 13
0 0 0 0 0 0 0 0 0 0 0 0 0 0 0 0 0 10 6 13 13 6 10 6 6 6 6 19 23 19 16 23 23 26 26 26 29 29 16 13 16 13 13 13
0 0 0 0 0 0 0 0 0 0 0 0 0 0 0 0 3 10 16 13 13 16 13 6 6 10 6 19 16 23 26 29 29 29 29 29 29 23 26 19 16 13 16 16
0 0 0 0 0 0 0 0 0 0 0 0 0 0 0 0 0 6 13 13 13 19 16 16 13 13 10 16 16 23 29 29 26 29 29 32 26 23 26 26 26 26 19 23
0 0 0 0 0 0 0 0 0 0 0 0 0 0 0 0 3 6 13 19 16 16 19 16 13 13 10 10 23 23 29 26 29 26 29 39 29 26 26 29 26 26 23 23
0 0 0 0 0 0 0 0 0 0 0 0 0 0 0 3 3 10 16 19 19 26 23 16 13 13 6 10 19 23 23 29 29 26 35 39 32 26 26 26 26 26 19 23
0 0 0 0 0 0 0 0 0 0 0 0 0 0 3 6 3 16 19 19 26 29 32 23 23 19 16 16 19 19 29 32 35 35 42 35 35 29 29 29 23 19 19 19
0 0 0 0 0 0 0 0 0 0 0 0 0 0 6 6 6 19 16 23 26 32 32 26 26 26 19 16 19 26 32 35 42 42 39 35 35 32 29 32 23 19 19 13
0 0 0 0 0 0 0 0 0 0 0 0 3 3 6 3 3 10 19 16 19 23 29 29 29 23 19 13 19 29 32 35 39 42 39 35 32 32 26 26 23 16 13 10
0 0 0 0 0 0 0 0 0 3 0 0 0 6 6 6 0 13 13 16 19 23 32 29 29 26 19 13 23 26 39 35 35 39 42 32 29 26 29 29 23 13 10 13
0 0 0 0 0 0 0 3 3 6 6 6 3 6 10 16 13 16 16 19 26 26 26 23 26 26 19 13 13 26 32 29 26 26 32 29 29 29 29 29 23 19 10 10
0 0 0 0 0 0 0 0 6 10 10 10 13 10 13 10 16 13 10 13 19 23 26 23 26 26 13 13 16 16 32 26 23 26 32 29 26 29 26 29 26 10 10 3
0 0 0 0 0 0 0 0 3 10 10 16 13 19 19 16 16 16 19 16 19 19 26 23 26 26 23 13 16 16 26 26 29 29 29 29 32 29 29 29 29 16 6 3
0 0 0 0 0 0 0 0 3 10 13 13 23 23 13 16 16 16 13 16 23 23 26 23 19 16 13 13 16 19 29 26 26 29 29 35 35 29 26 26 23 13 10 10
0 0 0 0 0 0 0 3 0 3 6 13 13 10 13 13 10 6 10 19 19 19 23 19 19 16 10 10 13 19 19 23 23 26 29 29 32 29 29 26 23 16 13 10
0 0 0 0 0 0 0 10 3 3 6 6 6 13 16 10 10 10 10 10 16 19 16 16 13 6 13 16 13 16 16 23 23 35 29 29 29 29 26 19 19 16 16 13
0 0 0 0 0 0 6 6 6 6 6 6 10 16 13 16 10 10 10 6 10 13 10 13 10 10 13 16 16 19 16 19 23 32 32 29 29 29 23 26 26 16 13 16
0 0 3 6 6 6 3 3 3 6 6 10 10 13 16 13 3 6 6 6 10 6 10 10 13 6 10 10 13 16 19 19 26 29 26 26 29 26 26 26 23 19 13 13
0 0 3 6 6 3 3 3 6 10 16 13 10 10 13 6 6 10 6 6 10 6 13 16 13 10 6 6 3 16 16 26 26 26 26 26 19 19 19 19 19 23 19 16
3 0 3 6 6 3 3 3 10 13 13 13 6 3 10 13 13 13 6 16 16 16 10 13 13 13 6 6 6 10 13 19 19 19 23 19 19 19 19 19 13 0 3 3
Height
5899 5902 5904 5906 5908 5909 5909 5910 5911 5912 5912 5912 5911 5910 5910 5909 5908 5907 5906 5905 5903 5902 5900 5898 5897 5896 5894 5893 5892 5892 5891 5891 5890 5890 5890 5889 5889 5889 5889 5889 5889 5889 5889 5889
5897 5899 5902 5903 5905 5907 5908 5909 5910 5911 5911 5911 5911 5911 5911 5910 5909 5908 5907 5906 5905 5903 5902 5900 5899 5898 5896 5895 5894 5893 5893 5892 5892 5891 5891 5891 5891 5891 5891 5890 5890 5890 5890 5890
5894 5898 5899 5901 5903 5905 5907 5909 5909 5910 5911 5911 5911 5911 5911 5911 5910 5909 5908 5907 5906 5904 5903 5902 5900 5899 5898 5897 5896 5895 5894 5893 5893 5893 5892 5892 5892 5892 5892 5891 5891 5890 5890 5891
5890 5893 5896 5898 5901 5903 5905 5907 5908 5909 5910 5910 5911 5911 5911 5910 5910 5909 5909 5908 5907 5906 5905 5903 5901 5900 5900 5899 5898 5897 5896 5895 5894 5894 5893 5893 5893 5893 5892 5892 5892 5891 5891 5891
5887 5890 5893 5895 5899 5901 5903 5905 5906 5907 5908 5909 5909 5910 5911 5910 5910 5910 5909 5908 5908 5907 5906 5904 5902 5901 5900 5900 5899 5898 5897 5896 5895 5895 5895 5894 5894 5893 5893 5893 5892 5892 5892 5892
5883 5886 5889 5892 5895 5897 5899 5902 5903 5904 5906 5907 5908 5909 5910 5909 5909 5909 5909 5909 5908 5907 5906 5904 5903 5902 5901 5901 5900 5899 5898 5897 5896 5896 5895 5895 5894 5894 5894 5893 5893 5892 5892 5892
5878 5882 5885 5888 5891 5894 5896 5899 5900 5901 5903 5905 5906 5907 5909 5908 5908 5908 5908 5908 5908 5907 5906 5905 5903 5902 5902 5901 5901 5900 5899 5898 5897 5896 5896 5895 5895 5895 5894 5894 5894 5893 5893 5892
5873 5878 5881 5884 5887 5890 5892 5895 5898 5899 5900 5902 5903 5904 5907 5907 5907 5907 5907 5907 5907 5906 5905 5904 5903 5902 5902 5902 5901 5900 5899 5898 5897 5896 5895 5895 5895 5895 5895 5894 5894 5893 5893 5892
5869 5873 5877 5880 5883 5886 5888 5891 5894 5895 5896 5898 5900 5902 5904 5904 5905 5905 5906 5906 5906 5905 5905 5904 5903 5902 5902 5901 5901 5901 5900 5899 5898 5897 5896 5895 5895 5895 5894 5894 5894 5893 5893 5892
5864 5868 5872 5875 5878 5881 5884 5887 5889 5891 5892 5894 5896 5898 5901 5901 5902 5903 5904 5904 5904 5904 5903 5903 5902 5902 5901 5901 5901 5900 5900 5899 5898 5897 5896 5895 5894 5894 5894 5894 5894 5893 5892 5892
5858 5863 5867 5870 5872 5876 5879 5882 5884 5886 5888 5890 5892 5897 5898 5899 5900 5901 5901 5902 5902 5902 5902 5902 5901 5901 5901 5900 5900 5899 5899 5898 5897 5896 5896 5895 5894 5893 5893 5893 5893 5892 5892 5891
5852 5856 5860 5864 5868 5871 5874 5877 5880 5882 5884 5886 5888 5894 5895 5896 5897 5898 5898 5899 5899 5900 5900 5900 5899 5899 5899 5899 5899 5899 5898 5897 5896 5896 5895 5894 5893 5892 5893 5892 5892 5891 5891 5890
5846 5850 5854 5858 5863 5865 5867 5871 5874 5877 5879 5880 5883 5889 5890 5892 5893 5894 5895 5896 5896 5897 5897 5897 5897 5897 5897 5898 5898 5897 5897 5896 5895 5894 5894 5893 5892 5891 5891 5890 5890 5890 5889 5888
5840 5843 5848 5852 5856 5859 5862 5865 5868 5871 5873 5875 5878 5882 5885 5887 5889 5890 5891 5892 5893 5893 5894 5894 5894 5895 5895 5895 5895 5895 5895 5894 5893 5893 5892 5892 5891 5890 5889 5889 5888 5888 5887 5887
5832 5836 5840 5845 5849 5852 5856 5859 5862 5865 5867 5870 5874 5876 5880 5882 5884 5886 5887 5888 5888 5889 5890 5891 5891 5891 5892 5892 5892 5892 5892 5891 5891 5891 5890 5890 5889 5888 5887 5886 5886 5885 5885 5884
5824 5828 5832 5836 5841 5844 5848 5852 5855 5858 5861 5864 5867 5871 5874 5876 5878 5881 5882 5883 5884 5885 5886 5886 5887 5887 5888 5888 5888 5888 5888 5887 5887 5887 5887 5887 5886 5886 5885 5884 5883 5883 5882 5881
5817 5821 5824 5828 5832 5835 5839 5845 5848 5851 5854 5858 5860 5865 5868 5870 5872 5875 5877 5878 5879 5880 5880 5881 5882 5883 5883 5883 5883 5883 5883 5884 5883 5883 5883 5883 5883 5882 5882 5881 5880 5879 5878 5877
5809 5812 5816 5820 5824 5826 5834 5837 5840 5844 5847 5850 5853 5857 5861 5864 5866 5868 5870 5872 5874 5875 5875 5876 5876 5877 5878 5877 5878 5878 5878 5878 5878 5878 5879 5879 5878 5878 5877 5876 5875 5874 5873 5873
5801 5805 5808 5812 5815 5819 5824 5829 5833 5836 5839 5842 5846 5849 5853 5856 5859 5861 5864 5866 5867 5869 5870 5870 5871 5871 5871 5872 5872 5872 5872 5872 5872 5873 5873 5873 5872 5872 5872 5872 5871 5870 5869 5868
5792 5796 5800 5803 5806 5810 5817 5822 5824 5828 5829 5835 5838 5841 5845 5848 5851 5855 5857 5859 5860 5861 5863 5864 5864 5865 5865 5866 5866 5866 5866 5866 5866 5867 5867 5867 5866 5866 5866 5866 5865 5865 5864 5863
5783 5786 5790 5794 5797 5802 5808 5812 5815 5819 5823 5827 5830 5833 5837 5840 5844 5847 5849 5851 5853 5854 5855 5857 5858 5858 5859 5859 5859 5860 5860 5860 5860 5860 5861 5860 5860 5860 5860 5860 5859 5859 5858 5856
5774 5778 5782 5785 5789 5795 5800 5802 5806 5810 5815 5818 5822 5826 5829 5833 5836 5838 5841 5843 5845 5846 5848 5849 5850 5851 5852 5852 5853 5853 5853 5854 5853 5854 5854 5854 5854 5854 5853 5853 5853 5852 5851 5850
5765 5770 5773 5778 5783 5787 5790 5794 5798 5802 5806 5810 5814 5818 5821 5825 5828 5830 5832 5835 5837 5839 5840 5841 5843 5844 5844 5845 5846 5846 5846 5846 5846 5847 5847 5847 5847 5846 5846 5846 5845 5844 5843 5843
5756 5760 5764 5769 5773 5777 5781 5785 5789 5793 5797 5801 5805 5809 5813 5816 5819 5822 5824 5826 5828 5831 5832 5833 5834 5836 5836 5837 5838 5838 5838 5838 5839 5839 5839 5839 5839 5839 5839 5838 5837 5836 5836 5835
5748 5752 5755 5760 5764 5768 5772 5777 5781 5785 5788 5792 5796 5800 5804 5807 5810 5813 5815 5818 5820 5822 5823 5825 5826 5827 5828 5829 5829 5830 5830 5831 5831 5831 5832 5832 5832 5832 5831 5830 5830 5829 5828 5827
5740 5744 5748 5752 5756 5760 5764 5768 5772 5776 5780 5784 5788 5791 5795 5799 5801 5803 5806 5809 5811 5812 5814 5815 5817 5818 5819 5819 5820 5821 5822 5822 5823 5824 5824 5824 5824 5824 5824 5823 5823 5822 5821 5819
Wind_Speed
19 18 16 13 12 10 7 5 4 2 0 3 5 7 8 8 10 10 10 9 10 11 11 10 10 11 11 10 9 9 10 9 9 9 8 8 8 7 7 7 7 6 6 5
21 19 18 16 15 13 10 8 6 4 2 1 4 5 6 8 8 8 9 8 9 9 9 9 9 10 10 10 9 8 9 9 9 8 8 7 7 6 6 5 5 5 4 4
21 20 20 18 17 15 13 11 9 6 5 3 3 3 4 6 6 7 7 7 8 7 8 8 8 8 9 9 9 8 8 8 8 8 7 7 7 6 5 5 5 4 4 4
24 22 21 21 19 17 15 13 12 9 8 6 5 3 4 5 5 6 6 6 7 6 6 7 6 7 7 8 8 8 7 7 7 7 7 7 7 6 5 5 5 4 4 4
26 24 23 22 21 20 18 16 15 13 11 10 8 7 5 5 5 5 6 6 5 5 5 6 5 5 5 6 6 7 7 6 6 6 6 6 6 6 5 5 5 5 4 4
28 26 25 24 23 23 21 20 19 17 15 12 10 9 6 6 6 6 6 6 5 4 4 4 4 4 4 4 5 6 6 6 6 5 5 5 5 5 4 5 5 5 4 4
29 28 28 27 26 25 24 23 22 20 18 15 12 11 8 8 7 6 6 7 6 5 4 4 3 3 3 3 4 4 5 5 5 4 4 5 5 5 4 4 4 4 3 3
29 30 29 28 28 27 25 25 23 22 20 18 16 14 11 10 9 8 7 7 7 6 5 3 3 2 2 2 3 4 4 4 4 4 4 4 4 4 4 4 3 4 3 3
29 29 29 29 29 28 27 26 25 24 22 21 19 16 13 13 12 10 8 7 7 6 5 4 4 3 2 2 2 3 3 3 3 3 3 3 3 3 3 3 4 4 3 4
28 28 29 30 30 30 29 27 27 26 25 24 22 18 14 12 11 11 9 8 8 8 6 6 5 4 3 2 2 3 3 2 2 2 2 2 2 2 2 3 4 4 4 5
29 29 29 31 32 31 30 29 28 28 27 25 24 19 15 13 13 12 11 10 10 10 9 8 7 7 5 4 3 3 4 3 2 2 3 3 3 3 2 2 4 5 5 6
30 30 30 32 32 32 31 30 29 29 28 27 25 21 17 16 15 15 13 11 11 11 11 10 9 8 8 6 6 5 5 5 4 4 4 4 4 3 4 4 4 5 6 6
31 32 31 33 34 34 33 31 31 30 30 29 28 23 19 18 17 16 15 13 12 12 11 11 10 10 9 9 8 8 7 7 6 6 6 6 6 5 6 5 5 6 7 7
32 33 33 34 33 34 33 32 32 32 32 30 29 25 22 19 18 18 17 15 14 13 13 13 11 11 11 11 11 10 10 9 9 8 8 9 8 7 7 7 7 7 7 8
34 34 34 33 34 35 34 33 33 33 33 32 29 27 24 21 20 19 18 17 16 15 15 14 14 13 13 13 13 13 12 12 11 11 11 10 10 9 9 9 9 9 9 10
35 35 34 34 35 36 36 34 33 33 34 33 31 29 26 24 23 21 20 18 18 17 17 16 15 16 16 15 15 15 15 15 14 14 13 13 13 12 12 12 11 11 12 12
36 36 35 35 35 37 38 36 35 34 34 33 33 31 28 26 25 24 22 21 20 19 19 17 17 17 17 18 18 17 17 18 18 17 16 16 16 15 15 15 14 14 15 15
37 37 36 36 35 38 37 36 36 35 34 33 33 32 30 28 27 26 24 23 22 21 21 20 19 19 19 20 20 21 21 21 21 20 19 19 19 19 18 17 17 17 17 17
38 38 38 38 37 37 37 36 35 35 35 34 33 32 30 29 29 28 26 24 23 23 22 21 21 20 20 21 21 22 22 23 23 22 21 21 21 20 20 19 19 19 19 19
39 39 40 40 40 39 36 35 35 35 36 35 34 33 32 31 31 29 26 25 24 25 24 23 23 23 23 22 23 24 24 24 24 23 23 24 24 23 22 21 21 21 21 21
39 40 40 40 40 38 36 34 34 36 35 34 34 33 32 32 31 29 27 26 26 25 24 25 25 25 25 25 25 25 25 25 26 25 25 25 24 24 23 22 23 24 24 24
40 40 41 40 40 38 35 33 33 33 33 32 32 31 31 30 30 30 29 27 27 27 26 26 26 26 26 27 27 27 27 27 27 26 26 25 25 25 25 25 25 26 26 25
40 40 41 41 39 36 34 33 32 32 32 32 32 32 31 31 31 31 30 29 28 28 28 28 28 28 28 28 28 28 27 27 28 27 27 26 26 26 26 27 27 27 26 26
37 38 39 39 37 35 34 33 33 33 33 32 32 32 32 32 31 31 31 31 30 30 30 29 29 29 29 29 29 29 28 28 28 28 28 27 27 27 27 27 27 26 27 27
36 36 37 38 36 35 34 34 33 34 34 33 32 32 32 32 33 33 33 32 31 32 31 31 31 31 31 31 30 30 29 29 29 29 28 28 28 28 28 27 28 28 28 28
35 35 36 36 35 36 35 35 34 34 35 34 33 33 32 32 33 33 33 33 33 33 33 33 33 33 33 32 30 30 30 29 29 29 29 29 29 30 30 29 28 28 29 28
Wind_Direction
219 219 219 218 219 222 223 227 218 213 43 37 40 41 39 33 26 26 26 30 36 42 47 50 56 58 60 60 64 68 72 74 74 75 74 72 71 73 75 83 86 89 87 87
220 221 221 222 223 223 229 236 234 231 241 350 20 31 31 22 22 19 19 24 29 37 44 48 53 58 58 58 62 68 70 73 75 74 71 70 71 71 71 76 77 80 80 80
222 223 222 223 225 226 231 236 238 248 253 272 327 3 8 10 8 11 14 14 19 32 39 43 47 55 57 57 60 64 65 68 70 69 68 69 68 68 69 69 67 73 78 75
220 221 223 223 225 227 230 234 238 243 256 269 283 316 334 346 353 5 7 7 7 18 30 37 43 50 55 55 56 57 59 62 65 68 67 64 62 62 62 60 60 64 69 67
222 222 224 225 226 228 231 235 238 242 252 264 275 290 308 324 339 343 349 353 355 0 17 29 35 42 51 52 57 54 51 52 57 62 60 59 57 59 58 56 54 56 58 57
223 223 224 225 227 229 232 235 239 242 248 256 269 278 285 293 313 319 326 329 329 333 350 10 19 26 41 50 51 47 44 44 46 55 57 59 53 51 54 54 50 50 48 43
223 222 223 225 227 230 231 234 239 242 245 253 263 272 278 281 289 293 301 308 306 305 321 347 4 18 35 40 35 39 38 38 39 40 45 49 50 51 49 51 49 47 39 29
225 224 225 227 228 231 233 237 242 247 251 256 262 267 270 271 274 281 286 296 298 294 300 323 347 353 9 18 14 25 29 31 31 30 31 35 45 48 43 39 36 31 24 13
226 226 227 228 229 230 233 236 242 248 252 256 259 265 268 269 268 269 277 285 289 282 288 308 327 318 322 339 1 13 15 18 16 18 19 20 28 33 27 21 18 13 4 356
227 227 227 227 229 230 232 236 240 244 249 252 256 261 262 264 263 268 272 271 273 270 279 293 308 302 285 298 315 336 340 347 1 6 7 360 349 359 356 359 3 2 0 354
227 227 225 227 229 230 232 235 239 243 248 251 256 257 257 260 263 264 267 270 270 269 273 280 290 291 285 281 286 300 308 313 321 332 330 323 314 322 328 333 340 341 339 340
227 227 225 226 230 231 233 236 239 242 247 252 257 259 258 258 263 263 263 266 269 267 267 267 275 285 277 277 283 287 288 295 300 306 311 312 313 314 312 310 312 319 323 325
228 229 228 226 229 231 234 236 238 243 247 250 256 259 257 260 262 262 262 259 262 263 263 262 266 275 271 272 278 285 288 288 288 294 299 302 308 306 306 303 300 304 312 320
232 233 231 230 231 233 235 237 240 243 247 251 255 257 255 258 261 261 261 258 260 261 262 263 263 270 268 273 274 278 283 282 282 284 289 298 299 299 298 299 298 302 306 311
233 235 234 233 232 233 235 238 241 243 247 251 254 255 255 256 257 258 258 257 257 261 262 265 263 268 269 270 272 272 274 276 278 280 283 288 292 292 291 294 295 296 299 304
233 236 236 236 235 235 235 237 240 243 246 249 252 253 255 256 254 254 255 258 259 260 260 262 260 261 264 266 267 267 272 275 274 274 276 280 283 285 287 287 289 291 293 296
234 236 237 238 237 237 237 237 240 243 245 248 251 253 255 255 254 253 253 254 258 263 260 260 260 261 264 264 263 268 271 273 272 270 272 275 275 276 278 280 282 285 287 288
235 236 238 239 239 240 240 239 241 243 244 246 248 250 251 252 251 251 253 254 255 258 259 259 260 262 265 265 262 265 268 272 273 271 273 276 274 273 273 277 281 283 285 286
236 237 239 240 241 243 242 242 243 244 245 245 246 248 248 249 251 252 253 254 254 255 256 258 260 264 265 265 264 265 267 271 273 273 272 272 273 275 275 276 279 282 285 288
236 237 239 241 243 244 243 244 246 246 246 245 247 247 247 249 251 252 253 253 254 259 256 256 259 262 264 265 267 268 268 269 271 271 271 271 273 275 277 276 277 279 282 285
235 237 239 242 245 246 246 246 245 245 244 244 246 246 246 248 250 249 249 250 252 257 258 258 259 261 262 263 266 269 267 268 269 271 275 273 274 275 276 279 281 280 281 283
235 237 238 241 244 246 245 245 243 244 243 243 244 245 246 247 249 249 248 249 251 253 256 258 260 262 263 264 265 267 267 268 270 272 275 276 276 276 278 278 280 281 282 283
236 238 239 241 243 245 244 245 244 242 242 242 243 243 244 246 249 249 248 250 249 249 253 256 259 261 264 265 266 267 268 268 268 271 274 275 274 275 277 278 279 279 280 282
236 237 239 240 241 242 243 243 243 241 241 242 242 244 245 246 248 251 249 250 249 250 254 256 257 260 263 264 265 267 268 269 271 272 273 274 274 275 276 276 277 278 279 283
235 237 238 239 240 241 242 242 242 241 241 240 242 244 245 247 250 252 252 250 249 252 254 255 257 260 262 263 265 266 266 268 270 273 274 272 273 275 277 277 278 280 281 283
234 236 237 239 241 241 241 240 241 241 241 239 240 241 244 247 249 252 251 252 253 253 253 256 259 261 262 262 264 265 267 267 268 270 272 272 273 275 277 279 278 279 282 283